| time (UTC) | temp C | wind direction | speed KPH | gust KPH | rain 1hr cm | rain 24hr cm | rain mn cm | humidity % | barometer mb |
| 20260509111305 | 16 | 315 | 4.8 | 11.3 | 0.00 | 0.36 | 0.13 | 78 | 1009.2 |
| 20260509110805 | 17 | 321 | 4.8 | 16.1 | 0.00 | 0.36 | 0.13 | 76 | 1009.2 |
| 20260509110305 | 17 | 308 | 4.8 | 9.7 | 0.00 | 0.36 | 0.13 | 78 | 1009.2 |
| 20260509105806 | 17 | 322 | 6.4 | 19.3 | 0.00 | 0.36 | 0.13 | 79 | 1009.1 |
| 20260509105306 | 16 | 315 | 6.4 | 14.5 | 0.00 | 0.36 | 0.13 | 81 | 1009.2 |
| 20260509102306 | 16 | 296 | 4.8 | 19.3 | 0.00 | 0.36 | 0.13 | 80 | 1009.0 |
| 20260509101805 | 16 | 300 | 4.8 | 19.3 | 0.00 | 0.36 | 0.13 | 79 | 1008.9 |
| 20260509101306 | 16 | 311 | 6.4 | 19.3 | 0.00 | 0.36 | 0.13 | 81 | 1008.9 |
| 20260509100805 | 16 | 319 | 8.0 | 16.1 | 0.00 | 0.36 | 0.13 | 81 | 1008.8 |
| 20260509095805 | 16 | 324 | 4.8 | 11.3 | 0.00 | 0.36 | 0.13 | 85 | 1008.9 |
| 20260509094306 | 15 | 331 | 4.8 | 19.3 | 0.00 | 0.38 | 0.13 | 84 | 1008.8 |
| 20260509093805 | 15 | 325 | 8.0 | 25.7 | 0.00 | 0.38 | 0.13 | 84 | 1008.8 |
| 20260509092805 | 16 | 327 | 4.8 | 11.3 | 0.00 | 0.38 | 0.13 | 81 | 1008.7 |
| 20260509092306 | 16 | 305 | 3.2 | 14.5 | 0.00 | 0.38 | 0.13 | 82 | 1008.7 |
| 20260509090805 | 14 | 320 | 3.2 | 11.3 | 0.00 | 0.38 | 0.13 | 85 | 1008.5 |
| 20260509085306 | 14 | 321 | 3.2 | 19.3 | 0.00 | 0.38 | 0.13 | 85 | 1008.4 |
| 20260509083305 | 14 | 339 | 4.8 | 11.3 | 0.00 | 0.38 | 0.13 | 88 | 1008.2 |
| 20260509082307 | 14 | 310 | 3.2 | 8.0 | 0.00 | 0.38 | 0.13 | 89 | 1008.2 |
| 20260509081806 | 13 | 306 | 4.8 | 14.5 | 0.00 | 0.38 | 0.13 | 91 | 1008.3 |
| 20260509074306 | 13 | 341 | 4.8 | 19.3 | 0.00 | 0.46 | 0.13 | 92 | 1007.5 |
| 20260509073805 | 13 | 327 | 3.2 | 8.0 | 0.00 | 0.46 | 0.13 | 91 | 1007.7 |
| 20260509073305 | 13 | 334 | 3.2 | 11.3 | 0.00 | 0.46 | 0.13 | 91 | 1007.4 |
| 20260509065805 | 13 | 336 | 4.8 | 12.9 | 0.00 | 0.46 | 0.13 | 92 | 1007.2 |
| 20260509065306 | 13 | 311 | 3.2 | 9.7 | 0.00 | 0.46 | 0.13 | 92 | 1007.1 |
| 20260509064806 | 13 | 330 | 4.8 | 14.5 | 0.00 | 0.46 | 0.13 | 92 | 1007.0 |
| 20260509064305 | 13 | 326 | 3.2 | 12.9 | 0.00 | 0.46 | 0.13 | 92 | 1007.0 |
| 20260509062306 | 13 | 303 | 4.8 | 11.3 | 0.00 | 0.46 | 0.13 | 92 | 1006.7 |
| 20260509061806 | 13 | 309 | 4.8 | 16.1 | 0.00 | 0.46 | 0.13 | 92 | 1006.7 |
| 20260509061305 | 13 | 317 | 3.2 | 14.5 | 0.00 | 0.46 | 0.13 | 92 | 1006.8 |
| 20260509060805 | 13 | 287 | 3.2 | 8.0 | 0.00 | 0.46 | 0.13 | 92 | 1006.8 |
| 20260509060305 | 13 | 318 | 4.8 | 11.3 | 0.00 | 0.46 | 0.13 | 92 | 1006.7 |
| 20260509054305 | 13 | 310 | 4.8 | 19.3 | 0.00 | 0.46 | 0.13 | 92 | 1006.3 |
| 20260509045805 | 13 | 343 | 4.8 | 14.5 | 0.00 | 0.46 | 0.13 | 93 | 1006.1 |
| 20260509045306 | 13 | 313 | 4.8 | 20.9 | 0.00 | 0.46 | 0.13 | 93 | 1006.3 |
| 20260509044305 | 13 | 307 | 4.8 | 19.3 | 0.00 | 0.46 | 0.13 | 93 | 1006.3 |
| 20260509042805 | 13 | 326 | 4.8 | 19.3 | 0.00 | 0.51 | 0.13 | 93 | 1006.2 |
| 20260509042307 | 13 | 309 | 3.2 | 16.1 | 0.00 | 0.51 | 0.13 | 93 | 1006.1 |
| 20260509041305 | 13 | 310 | 4.8 | 11.3 | 0.00 | 0.51 | 0.13 | 93 | 1006.1 |
| 20260509040805 | 13 | 321 | 4.8 | 9.7 | 0.00 | 0.51 | 0.13 | 93 | 1006.2 |
| 20260509040305 | 13 | 311 | 6.4 | 19.3 | 0.03 | 0.51 | 0.13 | 92 | 1006.0 |
| 20260509035805 | 13 | 334 | 3.2 | 9.7 | 0.03 | 0.51 | 0.13 | 93 | 1006.0 |
| 20260509034805 | 13 | 325 | 4.8 | 19.3 | 0.03 | 0.51 | 0.13 | 93 | 1006.3 |
| 20260509032805 | 13 | 306 | 4.8 | 11.3 | 0.03 | 0.71 | 0.13 | 92 | 1006.1 |
| 20260509031305 | 13 | 298 | 6.4 | 20.9 | 0.05 | 0.71 | 0.13 | 93 | 1006.0 |
| 20260509030805 | 13 | 324 | 3.2 | 19.3 | 0.05 | 0.71 | 0.13 | 93 | 1006.2 |
| 20260509030304 | 13 | 302 | 4.8 | 19.3 | 0.03 | 0.71 | 0.10 | 92 | 1006.1 |
| 20260509025805 | 13 | 337 | 6.4 | 19.3 | 0.03 | 0.71 | 0.10 | 92 | 1006.0 |
| 20260509024805 | 13 | 317 | 3.2 | 14.5 | 0.03 | 0.71 | 0.10 | 92 | 1006.3 |
| 20260509024305 | 13 | 316 | 4.8 | 11.3 | 0.03 | 0.71 | 0.10 | 92 | 1006.4 |
| 20260509022805 | 13 | 314 | 6.4 | 19.3 | 0.05 | 0.71 | 0.10 | 92 | 1006.1 |
| 20260509022306 | 13 | 313 | 3.2 | 9.7 | 0.05 | 0.71 | 0.10 | 91 | 1006.1 |
| 20260509021805 | 13 | 322 | 6.4 | 14.5 | 0.05 | 0.71 | 0.10 | 91 | 1006.1 |
| 20260509021304 | 13 | 308 | 4.8 | 14.5 | 0.03 | 0.69 | 0.08 | 91 | 1006.3 |
| 20260509020805 | 13 | 343 | 6.4 | 19.3 | 0.03 | 0.69 | 0.08 | 91 | 1006.4 |
| 20260509015805 | 13 | 298 | 4.8 | 11.3 | 0.03 | 0.69 | 0.08 | 91 | 1006.0 |
| 20260509015306 | 13 | 315 | 6.4 | 19.3 | 0.03 | 0.69 | 0.08 | 91 | 1006.2 |
| 20260509013304 | 13 | 317 | 4.8 | 14.5 | 0.00 | 0.66 | 0.05 | 91 | 1006.4 |
| 20260509012307 | 13 | 313 | 4.8 | 25.7 | 0.00 | 0.66 | 0.05 | 91 | 1006.5 |
| 20260509011804 | 13 | 331 | 8.0 | 16.1 | 0.00 | 0.66 | 0.05 | 91 | 1006.4 |
| 20260509011304 | 13 | 310 | 3.2 | 11.3 | 0.00 | 0.66 | 0.05 | 92 | 1006.6 |
| 20260509010805 | 13 | 321 | 4.8 | 19.3 | 0.00 | 0.66 | 0.05 | 92 | 1006.5 |
| 20260509010305 | 13 | 290 | 6.4 | 16.1 | 0.00 | 0.66 | 0.05 | 91 | 1006.5 |
| 20260509005805 | 13 | 323 | 4.8 | 19.3 | 0.00 | 0.66 | 0.05 | 91 | 1006.6 |
| 20260509005306 | 13 | 336 | 6.4 | 19.3 | 0.03 | 0.66 | 0.05 | 91 | 1006.6 |
| 20260509004305 | 13 | 343 | 3.2 | 9.7 | 0.05 | 0.66 | 0.05 | 91 | 1006.7 |
| 20260509003804 | 13 | 318 | 6.4 | 19.3 | 0.05 | 0.66 | 0.05 | 91 | 1006.5 |
| 20260509003304 | 13 | 325 | 4.8 | 14.5 | 0.05 | 0.66 | 0.05 | 91 | 1006.5 |
| 20260509000304 | 13 | 307 | 8.0 | 20.9 | 0.05 | 0.66 | 0.05 | 89 | 1006.0 |
| 20260508235805 | 13 | 288 | 4.8 | 19.3 | 0.05 | 0.66 | 0.05 | 89 | 1006.1 |
| 20260508235306 | 13 | 317 | 4.8 | 16.1 | 0.05 | 0.64 | 0.05 | 88 | 1006.6 |
| 20260508234805 | 13 | 339 | 4.8 | 14.5 | 0.00 | 0.61 | 0.00 | 88 | 1006.5 |
| 20260508234305 | 13 | 344 | 3.2 | 16.1 | 0.00 | 0.61 | 0.00 | 88 | 1006.3 |
| 20260508233804 | 13 | 310 | 4.8 | 19.3 | 0.00 | 0.61 | 0.00 | 88 | 1006.6 |
| 20260508232307 | 14 | 320 | 3.2 | 11.3 | 0.00 | 0.61 | 0.00 | 89 | 1006.5 |
| 20260508223804 | 13 | 316 | 6.4 | 19.3 | 0.00 | 0.61 | 0.61 | 89 | 1006.1 |
| 20260508223305 | 13 | 205 | 8.0 | 19.3 | 0.00 | 0.61 | 0.61 | 89 | 1006.2 |
| 20260508222306 | 13 | 340 | 4.8 | 22.5 | 0.00 | 0.61 | 0.61 | 90 | 1006.1 |
| 20260508221804 | 13 | 323 | 8.0 | 16.1 | 0.00 | 0.61 | 0.61 | 90 | 1006.3 |
| 20260508221305 | 13 | 312 | 4.8 | 19.3 | 0.00 | 0.61 | 0.61 | 90 | 1006.3 |
| 20260508215306 | 13 | 323 | 8.0 | 22.5 | 0.00 | 0.61 | 0.61 | 91 | 1005.6 |
| 20260508214805 | 13 | 310 | 8.0 | 22.5 | 0.00 | 0.61 | 0.61 | 91 | 1006.0 |
| 20260508205306 | 13 | 310 | 9.7 | 25.7 | 0.00 | 0.61 | 0.61 | 91 | 1005.3 |
| 20260508204304 | 13 | 328 | 6.4 | 27.4 | 0.00 | 0.61 | 0.61 | 91 | 1005.3 |
| 20260508203806 | 13 | 311 | 9.7 | 32.2 | 0.00 | 0.61 | 0.61 | 91 | 1005.1 |
| 20260508201304 | 13 | 344 | 8.0 | 35.4 | 0.00 | 0.61 | 0.61 | 92 | 1004.8 |
| 20260508200804 | 13 | 321 | 9.7 | 24.1 | 0.00 | 0.61 | 0.61 | 92 | 1005.1 |
| 20260508194305 | 14 | 328 | 8.0 | 20.9 | 0.00 | 0.61 | 0.61 | 93 | 1004.8 |
| 20260508191304 | 14 | 304 | 4.8 | 27.4 | 0.05 | 0.61 | 0.61 | 92 | 1004.2 |
| 20260508190804 | 14 | 341 | 4.8 | 20.9 | 0.13 | 0.61 | 0.61 | 92 | 1004.6 |
| 20260508184304 | 14 | 292 | 8.0 | 19.3 | 0.23 | 0.61 | 0.61 | 91 | 1004.9 |
| 20260508183804 | 13 | 315 | 4.8 | 22.5 | 0.23 | 0.61 | 0.61 | 91 | 1005.1 |
| 20260508183305 | 13 | 327 | 8.0 | 19.3 | 0.23 | 0.61 | 0.61 | 90 | 1004.9 |
| 20260508182805 | 13 | 316 | 8.0 | 22.5 | 0.23 | 0.61 | 0.61 | 89 | 1004.8 |
| 20260508182306 | 13 | 321 | 6.4 | 25.7 | 0.23 | 0.61 | 0.61 | 87 | 1004.9 |
| 20260508181805 | 13 | 306 | 8.0 | 19.3 | 0.23 | 0.61 | 0.61 | 85 | 1004.8 |
| 20260508180805 | 15 | 323 | 9.7 | 20.9 | 0.13 | 0.51 | 0.51 | 82 | 1004.7 |
| 20260508173304 | 15 | 326 | 9.7 | 25.7 | 0.00 | 0.38 | 0.38 | 77 | 1004.4 |
| 20260508172805 | 15 | 289 | 11.3 | 29.0 | 0.00 | 0.38 | 0.38 | 77 | 1004.7 |
| 20260508172307 | 15 | 306 | 8.0 | 27.4 | 0.00 | 0.38 | 0.38 | 76 | 1004.3 |
| 20260508171304 | 16 | 297 | 11.3 | 32.2 | 0.00 | 0.38 | 0.38 | 77 | 1004.5 |
| 20260508170804 | 16 | 285 | 11.3 | 29.0 | 0.00 | 0.38 | 0.38 | 74 | 1004.8 |
| 20260508170304 | 16 | 296 | 9.7 | 29.0 | 0.00 | 0.38 | 0.38 | 72 | 1004.9 |
| 20260508165804 | 16 | 259 | 9.7 | 40.2 | 0.00 | 0.38 | 0.38 | 75 | 1004.7 |
| 20260508165306 | 16 | 317 | 11.3 | 32.2 | 0.00 | 0.38 | 0.38 | 78 | 1004.5 |
| 20260508164804 | 16 | 300 | 9.7 | 29.0 | 0.00 | 0.38 | 0.38 | 77 | 1004.5 |
| 20260508164304 | 16 | 284 | 9.7 | 32.2 | 0.00 | 0.38 | 0.38 | 75 | 1004.7 |
| 20260508161304 | 16 | 281 | 11.3 | 45.1 | 0.00 | 0.38 | 0.38 | 74 | 1004.4 |
| 20260508160804 | 16 | 300 | 11.3 | 33.8 | 0.00 | 0.38 | 0.38 | 71 | 1004.5 |
| 20260508155804 | 17 | 291 | 9.7 | 29.0 | 0.00 | 0.38 | 0.38 | 72 | 1004.2 |
| 20260508155306 | 17 | 270 | 12.9 | 32.2 | 0.00 | 0.38 | 0.38 | 68 | 1004.4 |
| 20260508154304 | 17 | 261 | 14.5 | 29.0 | 0.00 | 0.38 | 0.38 | 67 | 1004.6 |
| 20260508152804 | 17 | 292 | 11.3 | 37.0 | 0.00 | 0.38 | 0.38 | 71 | 1004.4 |
| 20260508151804 | 17 | 311 | 11.3 | 27.4 | 0.00 | 0.38 | 0.38 | 73 | 1004.7 |
| 20260508151305 | 17 | 279 | 19.3 | 33.8 | 0.00 | 0.38 | 0.38 | 69 | 1004.7 |
| 20260508150804 | 17 | 286 | 12.9 | 32.2 | 0.00 | 0.38 | 0.38 | 70 | 1004.7 |
| 20260508150305 | 16 | 299 | 9.7 | 29.0 | 0.00 | 0.38 | 0.38 | 71 | 1004.6 |
| 20260508141805 | 17 | 314 | 11.3 | 33.8 | 0.00 | 0.38 | 0.38 | 73 | 1004.5 |
| 20260508141305 | 16 | 298 | 11.3 | 29.0 | 0.00 | 0.38 | 0.38 | 75 | 1004.7 |
| 20260508135306 | 16 | 290 | 14.5 | 22.5 | 0.00 | 0.38 | 0.38 | 71 | 1004.6 |
| 20260508130805 | 16 | 318 | 14.5 | 37.0 | 0.00 | 0.38 | 0.38 | 71 | 1005.1 |
| 20260508130306 | 16 | 277 | 9.7 | 25.7 | 0.00 | 0.38 | 0.38 | 76 | 1005.2 |
| 20260508125806 | 15 | 272 | 8.0 | 27.4 | 0.00 | 0.38 | 0.38 | 79 | 1005.0 |
| 20260508123805 | 15 | 321 | 4.8 | 19.3 | 0.00 | 0.38 | 0.38 | 79 | 1004.7 |
| 20260508121805 | 17 | 264 | 9.7 | 25.7 | 0.00 | 0.38 | 0.38 | 75 | 1004.9 |
| 20260508121305 | 16 | 288 | 9.7 | 22.5 | 0.00 | 0.38 | 0.38 | 78 | 1004.9 |
| 20260508120805 | 15 | 284 | 17.7 | 29.0 | 0.00 | 0.38 | 0.38 | 76 | 1005.1 |
| 20260508120305 | 16 | 292 | 8.0 | 25.7 | 0.00 | 0.38 | 0.38 | 80 | 1004.8 |
| 20260508115805 | 15 | 308 | 9.7 | 24.1 | 0.00 | 0.38 | 0.38 | 79 | 1005.2 |
| 20260508114805 | 15 | 301 | 6.4 | 14.5 | 0.00 | 0.38 | 0.38 | 80 | 1005.0 |
| 20260508114305 | 15 | 283 | 9.7 | 24.1 | 0.00 | 0.38 | 0.38 | 86 | 1005.1 |
| 20260508113805 | 15 | 299 | 16.1 | 33.8 | 0.00 | 0.38 | 0.38 | 86 | 1005.1 |
| 20260508113305 | 15 | 289 | 8.0 | 19.3 | 0.00 | 0.38 | 0.38 | 86 | 1005.1 |
| 20260508112806 | 15 | 308 | 9.7 | 32.2 | 0.00 | 0.38 | 0.38 | 87 | 1004.6 |
| 20260508112307 | 15 | 276 | 19.3 | 32.2 | 0.00 | 0.38 | 0.38 | 89 | 1005.0 |